Regional Weather Roundup
Issued by NWS

Home | Current Version | Previous Version | Graphics & Text | Print | Product List | Glossary Off
Versions: 1 2 3 4 5 6 7 8 9 10 11 12 13 14 15 16 17 18 19 20 21 22 23 24 25 26 27 28 29 30 31 32 33 34 35 36 37 38 39 40 41 42 43 44 45 46 47 48 49 50

000
ASUS43 KTOP 191208
RWRKS

WEATHER ROUNDUP FOR KANSAS
NATIONAL WEATHER SERVICE GOODLAND KS
600 AM CST FRI JAN 19 2018

NOTE:  "FAIR" INDICATES FEW OR NO CLOUDS BELOW 12,000 FEET WITH NO
SIGNIFICANT WEATHER AND/OR OBSTRUCTIONS TO VISIBILITY.

KSZ001>006-013>018-027>032-041>047-191300-
NORTHWEST KANSAS

CITY           SKY/WX    TMP DP  RH WIND       PRES   REMARKS
GOODLAND       CLOUDY    41  14  33 SW12      29.78F
6HR MIN TEMP:  38; 6HR MAX TEMP:  41;

HAYS           CLOUDY    29  16  58 SW7       29.82F
HILL CITY      CLOUDY    32  15  49 W5        29.79F
6HR MIN TEMP:  31; 6HR MAX TEMP:  39;

RUSSELL        CLOUDY    32  19  58 S16       29.81F WCI  21
6HR MIN TEMP:  32; 6HR MAX TEMP:  38;

$$

KSZ061>065-074>080-084>089-191300-
SOUTHWEST KANSAS

CITY           SKY/WX    TMP DP  RH WIND       PRES   REMARKS
DODGE CITY     CLOUDY    29  12  49 SW13      29.86F WCI  19
6HR MIN TEMP:  29; 6HR MAX TEMP:  37;

ELKHART        MOCLDY    37  12  35 W13       29.87S WCI  29
GARDEN CITY    CLOUDY    24   6  46 SW12      29.83F WCI  13
6HR MIN TEMP:  24; 6HR MAX TEMP:  31;

GREAT BEND     CLOUDY    29  19  66 S12       29.85  WCI  19
LIBERAL        CLOUDY    23   9  55 SW9       29.89F
PRATT          CLOUDY    25  16  67 S12       29.90F WCI  15
6HR MIN TEMP:  25; 6HR MAX TEMP:  32;

$$

KSZ066>073-081>083-090>101-191300-
SOUTHEAST KANSAS

CITY           SKY/WX    TMP DP  RH WIND       PRES   REMARKS
CHANUTE        CLOUDY    29  16  58 S15       30.03F WCI  18
6HR MIN TEMP:  29; 6HR MAX TEMP:  34;

COFFEYVILLE    CLOUDY    29  16  58 S13       30.07F WCI  19
6HR MIN TEMP:  29; 6HR MAX TEMP:  34;

HUTCHINSON     CLOUDY    28  20  71 S10       29.92F WCI  19
6HR MIN TEMP:  27; 6HR MAX TEMP:  34;

MEDICINE LODGE   N/A     25  18  74 SE5       29.94F
NEWTON         CLOUDY    29  18  63 S15       29.93F WCI  18
PARSONS        CLOUDY    28  17  63 S9        30.06F
6HR MIN TEMP:  28; 6HR MAX TEMP:  34;

WICHITA INTL   CLOUDY    28  16  60 S13       29.96F WCI  17
6HR MIN TEMP:  27; 6HR MAX TEMP:  36;

WICHITA JABRA  CLOUDY    30  16  56 S14       29.95F WCI  19
6HR MIN TEMP:  29; 6HR MAX TEMP:  37;

WICHITA MCCONL CLOUDY    28  15  56 SW12      29.96F WCI  18
WINFIELD       CLOUDY    27  15  61 S10       30.02F WCI  17
6HR MIN TEMP:  27; 6HR MAX TEMP:  34;

$$

KSZ007>012-019>026-033>040-048>060-102>105-191300-
NORTHEAST KANSAS

CITY           SKY/WX    TMP DP  RH WIND       PRES   REMARKS
CONCORDIA      CLOUDY    33  22  63 SW20      29.81F WCI  21
6HR MIN TEMP:  33; 6HR MAX TEMP:  38;

EMPORIA        CLOUDY    29  17  61 S14       29.94F WCI  18
6HR MIN TEMP:  29; 6HR MAX TEMP:  35;

LAWRENCE       CLOUDY    31  19  61 VRB5      29.96F
6HR MIN TEMP:  31; 6HR MAX TEMP:  38;

MANHATTAN      CLOUDY    35  22  58 SW14      29.89F WCI  26
6HR MIN TEMP:  35; 6HR MAX TEMP:  40;

MARYSVILLE     CLOUDY    34  23  64 SW12      29.85S WCI  25
OLATHE IND     CLOUDY    30  17  58 S12       29.97F WCI  20
6HR MIN TEMP:  30; 6HR MAX TEMP:  35;

OLATHE EXE     CLOUDY    29  17  61 MISG      29.97F
6HR MIN TEMP:  28; 6HR MAX TEMP:  33;

SALINA         CLOUDY    33  23  66 S13       29.87F WCI  24
6HR MIN TEMP:  33; 6HR MAX TEMP:  37;

TOPEKA BILLARD CLOUDY    32  20  61 S6        29.93F
6HR MIN TEMP:  32; 6HR MAX TEMP:  38;

TOPEKA FORBES  CLOUDY    32  19  58 S17       29.91F WCI  21
6HR MIN TEMP:  32; 6HR MAX TEMP:  37;

$$



USA.gov is the U.S. government's official web portal to all federal, state and local government web resources and services.